Showing default

FENGYUN 4A, 41882

Orbit data source: Space-Track

FENGYUN 4A, 41882 is a payload satellite owned by CNMSC (CN) in GEO that was launched on Sat, 10 Dec 2016 UTC via a CHANG ZHENG 3B launch vehicle from the Xichang Space Center, China (XSC). Payload-class satellites include a variety of spacecraft equipped with specific instruments for various scientific and technological missions. These include communications satellites like Starlink; space stations such as the ISS; scientific satellites like the Hubble; Earth observation satellites from companies like Planet Labs, Umbra, and HawkEye 360; GPS; miniature CubeSats for education and research; and military/defense satellites.

Not visible in the next 10 days
Identifier
41882, 2016-077A
Orbit
GEO
Country
Flag of CNCN / PRC
Related business
Manufacturer
SISE
Mission
Operational Civil Weather
Bus & Motor
FY-4, LAE?
Mass
5,380 kg wet, ~3,000 kg dry
Launch date (UTC)
2016-12-10 (9 years ago)
Launch vehicle
CHANG ZHENG 3B
Launch site
Xichang Space Center, China (XSC)
Object type
Payload
Rocket body
Debris
Shape & HBR
Box + 1 Pan, 5.0 m
Radar Cross Section
24.437 m², Large (>1 m²)

Expand to show TLE details & history
Last TLE update: 6 hours ago

TLE from 6 hours ago
0 FENGYUN 4A
1 41882U 16077A   25299.92673885 -.00000345  00000-0  00000-0 0  9992
2 41882   1.7254  82.7989 0005499 160.0535 249.9244  1.00263518 32593
Epoch: 2025-10-26T22:14Z
TLE epoch observation values (Epoch: 2025-10-26T22:14:30.236Z)
Latitude
1.30473°
Longitude
123.50739°
Altitude
35,796.183 km
Speed
3.074 km/s
True Right ascension
08h 50m 40s
True Declination
1° 18' 12"
Sunlit
Object was in daylight at epoch
Visualization orbit readout
Latitude
Unknown
Longitude
Unknown
Altitude
Unknown
Speed
Unknown
Apparent Right ascension
Unknown
Apparent Declination
Unknown
Sunlit
N/A
Visualization observer readout
Local Sidereal Time
23:45:40
Azimuth
Unknown
Elevation
Unknown
Doppler factor
Unknown
Orbital elements
Apogee altitude
35,813.17 km
Perigee altitude
35,766.793 km
Semi-major axis
42,168.119 km
Eccentricity
0.00055
Inclination
1.7254°
RAAN
82.7989°
Arg. of periapsis
160.0535°
True anomaly
249.86523°
Mean anomaly
249.9244°
Eccentric anomaly
249.89481°
Mean motion
0.25065 °/min
Orbital period
1,436.27 mins
BSTAR
0
Loading maneuver chart data...
Computing Atmospheric mass density...
Loading historical data...
Loading historical data...
Loading historical data...
Loading historical data...
Loading historical data...
Loading historical data...
Loading historical data...
Other satellites on launch #77 in the year 2016 (2016-12-10 UTC)

Documentation

Showing up to 5 results
|